Date String (YYYY-MM-DD hh:mm:ss) UTC,Instrument flags,absolute air pressure of the measurement (hPa),sample flow rate (lpm),inlet stack bypass flow (lpm),air temperature of the measurement (°C),ambient temperature measured by the external sensor (°C),aerosol sample conditioner tube jacket temperature (°C),OPC LED temperature (°C),internal box temperature (°C),relative humidity of the measurement (%),span deviation,mass concentration of particles derived from Lorenz-Mie calculation of OPC scattering (μg/m³),mass concentration of particles derived from Lorenz-Mie calculation of OPC scattering (μg/m³),mass concentration of particles derived from Lorenz-Mie calculation of OPC scattering (μg/m³)
DateTimeUTC,F1_M11,P_M11,Q1_M11,Q2_M11,T1_M11,T2_M11,T3_M11,T4_M11,T5_M11,U1_M11,ZSPAN_M11,X2_M11,X0_M11,X1_M11
2024-05-29 00:00:00,SystemResetWarning,0832.0,5.01,000.00,029.6,027.5,000.0,038.2,030.9,018.4,0000.0,0003.64,0013.82,0002.35
2024-05-29 00:01:00,SystemResetWarning,0832.0,5.00,000.00,029.6,027.9,000.0,038.2,031.1,018.5,0000.0,0003.60,0013.74,0002.33
2024-05-29 00:02:00,SystemResetWarning,0832.0,5.00,000.00,029.6,028.1,000.0,038.1,031.2,018.3,0000.0,0003.58,0013.67,0002.31
2024-05-29 00:03:00,SystemResetWarning,0832.1,5.00,000.00,029.6,028.4,000.0,038.1,031.3,017.0,0000.0,0003.53,0012.87,0002.32
2024-05-29 00:04:00,SystemResetWarning,0832.2,5.00,000.00,029.7,028.6,000.0,038.1,031.4,017.2,0000.0,0003.49,0012.26,0002.31
2024-05-29 00:05:00,SystemResetWarning,0832.1,4.99,000.00,029.7,028.7,000.0,038.1,031.4,017.5,0000.0,0003.49,0011.71,0002.29
2024-05-29 00:06:00,SystemResetWarning,0832.0,5.00,000.00,029.8,028.9,000.0,038.1,031.5,017.9,0000.0,0003.43,0010.55,0002.27
2024-05-29 00:07:00,SystemResetWarning,0832.0,4.99,000.00,029.8,029.0,000.0,038.1,031.6,018.2,0000.0,0003.38,0010.38,0002.26
2024-05-29 00:08:00,SystemResetWarning,0831.9,5.00,000.00,029.9,029.1,000.0,038.1,031.6,018.6,0000.0,0003.37,0010.02,0002.28
2024-05-29 00:09:00,SystemResetWarning,0831.9,5.00,000.00,029.9,029.2,000.0,038.2,031.7,019.0,0000.0,0003.37,0009.16,0002.27
2024-05-29 00:10:00,SystemResetWarning,0831.7,5.00,000.00,030.0,029.3,000.0,038.2,031.8,019.3,0000.0,0003.39,0008.99,0002.27
2024-05-29 00:11:00,SystemResetWarning,0831.7,5.00,000.00,030.0,029.4,000.0,038.2,031.8,019.8,0000.0,0003.42,0008.80,0002.26
2024-05-29 00:12:00,SystemResetWarning,0831.6,5.00,000.00,030.1,029.5,000.0,038.2,031.9,018.7,0000.0,0003.43,0008.82,0002.24
2024-05-29 00:13:00,SystemResetWarning,0831.6,5.00,000.00,030.1,029.6,000.0,038.3,031.9,018.4,0000.0,0003.40,0009.20,0002.22
2024-05-29 00:14:00,SystemResetWarning,0831.6,5.00,000.00,030.2,029.6,000.0,038.3,031.9,018.1,0000.0,0003.36,0009.48,0002.20
2024-05-29 00:15:00,SystemResetWarning,0831.6,5.00,000.00,030.2,029.7,000.0,038.3,032.0,018.4,0000.0,0003.38,0009.63,0002.20
2024-05-29 00:16:00,SystemResetWarning,0831.7,5.00,000.00,030.3,029.7,000.0,038.4,032.0,018.7,0000.0,0003.40,0009.53,0002.22
2024-05-29 00:17:00,SystemResetWarning,0831.6,5.00,000.00,030.3,029.8,000.0,038.4,032.1,017.8,0000.0,0003.42,0010.00,0002.23
2024-05-29 00:18:00,SystemResetWarning,0831.6,5.00,000.00,030.3,029.8,000.0,038.4,032.1,017.9,0000.0,0003.48,0010.15,0002.24
2024-05-29 00:19:00,SystemResetWarning,0831.7,5.00,000.00,030.4,029.9,000.0,038.5,032.1,017.1,0000.0,0003.45,0010.52,0002.21
2024-05-29 00:20:00,SystemResetWarning,0831.7,5.00,000.00,030.4,029.9,000.0,038.5,032.1,015.9,0000.0,0003.41,0010.22,0002.21
2024-05-29 00:21:00,SystemResetWarning,0832.0,4.99,000.00,030.4,029.9,000.0,038.6,032.2,016.2,0000.0,0003.40,0010.54,0002.22
2024-05-29 00:22:00,SystemResetWarning,0831.9,5.00,000.00,030.5,030.0,000.0,038.6,032.2,016.9,0000.0,0003.39,0011.20,0002.22
2024-05-29 00:23:00,SystemResetWarning,0831.8,4.99,000.00,030.5,030.0,000.0,038.6,032.3,017.1,0000.0,0003.39,0011.99,0002.22
2024-05-29 00:24:00,SystemResetWarning,0831.8,5.00,000.00,030.6,030.0,000.0,038.7,032.3,016.8,0000.0,0003.37,0011.50,0002.25
2024-05-29 00:25:00,SystemResetWarning,0831.9,4.99,000.00,030.6,029.7,000.0,038.7,032.1,016.4,0000.0,0003.40,0011.40,0002.26
2024-05-29 00:26:00,SystemResetWarning,0831.9,5.01,000.00,030.2,027.3,000.0,038.8,031.0,016.6,0000.0,0003.38,0011.48,0002.26
2024-05-29 00:27:00,SystemResetWarning,0831.9,5.01,000.00,029.9,026.7,000.0,038.7,030.6,017.1,0000.0,0003.38,0012.28,0002.25
2024-05-29 00:28:00,SystemResetWarning,0832.3,5.00,000.00,029.8,027.1,000.0,038.6,030.7,017.0,0000.0,0003.37,0013.01,0002.26
2024-05-29 00:29:00,SystemResetWarning,0831.9,5.00,000.00,029.8,027.5,000.0,038.5,031.0,016.9,0000.0,0003.37,0013.30,0002.28
2024-05-29 00:30:00,SystemResetWarning,0831.8,5.00,000.00,029.8,027.9,000.0,038.4,031.2,017.3,0000.0,0003.39,0013.02,0002.30
2024-05-29 00:31:00,SystemResetWarning,0831.8,4.99,000.00,029.8,028.2,000.0,038.4,031.3,017.5,0000.0,0003.44,0013.33,0002.32
2024-05-29 00:32:00,SystemResetWarning,0831.9,5.00,000.00,029.9,028.5,000.0,038.3,031.5,017.2,0000.0,0003.43,0013.43,0002.31
2024-05-29 00:33:00,SystemResetWarning,0831.9,5.00,000.00,029.9,028.7,000.0,038.3,031.6,017.0,0000.0,0003.43,0013.10,0002.32
2024-05-29 00:34:00,SystemResetWarning,0831.9,5.00,000.00,030.0,028.9,000.0,038.3,031.7,017.0,0000.0,0003.42,0012.29,0002.35
2024-05-29 00:35:00,SystemResetWarning,0831.9,5.00,000.00,030.0,029.1,000.0,038.3,031.7,017.2,0000.0,0003.43,0011.93,0002.36
2024-05-29 00:36:00,SystemResetWarning,0831.9,5.00,000.00,030.1,029.2,000.0,038.3,031.8,017.2,0000.0,0003.43,0011.86,0002.36
2024-05-29 00:37:00,SystemResetWarning,0832.0,5.00,000.00,030.1,029.4,000.0,038.4,031.9,017.1,0000.0,0003.40,0011.40,0002.36
2024-05-29 00:38:00,SystemResetWarning,0832.0,5.00,000.00,030.2,029.5,000.0,038.4,031.9,016.9,0000.0,0003.38,0010.84,0002.37
2024-05-29 00:39:00,SystemResetWarning,0832.0,5.00,000.00,030.2,029.6,000.0,038.4,032.0,016.4,0000.0,0003.38,0009.91,0002.37
2024-05-29 00:40:00,SystemResetWarning,0832.0,5.00,000.00,030.3,029.7,000.0,038.4,032.0,016.6,0000.0,0003.36,0009.74,0002.36
2024-05-29 00:41:00,SystemResetWarning,0831.9,5.00,000.00,030.3,029.7,000.0,038.4,032.1,016.2,0000.0,0003.39,0009.88,0002.36
2024-05-29 00:42:00,SystemResetWarning,0832.0,5.00,000.00,030.4,029.8,000.0,038.5,032.1,017.5,0000.0,0003.39,0010.39,0002.36
2024-05-29 00:43:00,SystemResetWarning,0831.9,5.00,000.00,030.4,029.9,000.0,038.5,032.2,017.7,0000.0,0003.41,0010.17,0002.38
2024-05-29 00:44:00,SystemResetWarning,0831.9,5.00,000.00,030.5,029.9,000.0,038.5,032.2,017.5,0000.0,0003.41,0010.67,0002.38
2024-05-29 00:45:00,SystemResetWarning,0831.9,5.00,000.00,030.5,030.0,000.0,038.6,032.3,017.6,0000.0,0003.40,0010.17,0002.38
2024-05-29 00:46:00,SystemResetWarning,0832.0,5.00,000.00,030.5,029.3,000.0,038.6,031.9,017.8,0000.0,0003.41,0010.23,0002.37
2024-05-29 00:47:00,SystemResetWarning,0831.8,5.01,000.00,030.1,026.9,000.0,038.7,030.7,018.9,0000.0,0003.42,0010.74,0002.37
2024-05-29 00:48:00,SystemResetWarning,0831.7,5.01,000.00,029.8,026.7,000.0,038.6,030.5,018.6,0000.0,0003.50,0011.24,0002.39
2024-05-29 00:49:00,SystemResetWarning,0831.7,4.99,000.00,029.7,027.1,000.0,038.5,030.6,018.5,0000.0,0003.54,0011.13,0002.41
2024-05-29 00:50:00,SystemResetWarning,0831.9,4.99,000.00,029.7,027.5,000.0,038.4,030.9,019.3,0000.0,0003.56,0011.25,0002.43
2024-05-29 00:51:00,SystemResetWarning,0832.0,5.00,000.00,029.7,027.9,000.0,038.3,031.1,019.5,0000.0,0003.60,0011.14,0002.44
2024-05-29 00:52:00,SystemResetWarning,0832.3,5.01,000.00,029.8,028.2,000.0,038.3,031.3,018.9,0000.0,0003.57,0010.93,0002.45
2024-05-29 00:53:00,SystemResetWarning,0831.9,5.00,000.00,029.8,028.5,000.0,038.3,031.4,019.1,0000.0,0003.61,0010.06,0002.50
2024-05-29 00:54:00,SystemResetWarning,0832.2,5.00,000.00,029.9,028.7,000.0,038.2,031.5,019.0,0000.0,0003.60,0010.14,0002.51
2024-05-29 00:55:00,SystemResetWarning,0831.9,4.99,000.00,029.9,028.9,000.0,038.3,031.6,019.1,0000.0,0003.60,0008.99,0002.51
2024-05-29 00:56:00,SystemResetWarning,0831.8,5.00,000.00,030.0,029.1,000.0,038.3,031.7,018.6,0000.0,0003.63,0009.85,0002.54
2024-05-29 00:57:00,SystemResetWarning,0831.9,5.01,000.00,030.0,029.3,000.0,038.3,031.8,018.0,0000.0,0003.63,0011.99,0002.54
2024-05-29 00:58:00,SystemResetWarning,0831.8,5.00,000.00,030.1,029.4,000.0,038.3,031.8,018.2,0000.0,0003.64,0012.07,0002.55
2024-05-29 00:59:00,SystemResetWarning,0831.8,4.99,000.00,030.1,029.5,000.0,038.3,031.9,018.1,0000.0,0003.61,0011.99,0002.56
